Regional Weather Roundup
Issued by NWS

Home | Current Version | Previous Version | Graphics & Text | Print | Product List | Glossary On
Versions: 1 2 3 4 5 6 7 8 9 10 11 12 13 14 15 16 17 18 19 20 21 22 23 24 25 26 27 28 29 30 31 32 33 34 35 36 37 38 39 40 41 42 43 44 45 46 47 48 49 50
000
ASUS43 KIND 270609
RWRIN

WEATHER ROUNDUP FOR INDIANA
NATIONAL WEATHER SERVICE INDIANAPOLIS IN
200 AM EDT THU APR 27 2017

NOTE: "FAIR" INDICATES FEW OR NO CLOUDS BELOW 12,000 FEET WITH NO
SIGNIFICANT WEATHER AND/OR OBSTRUCTIONS TO VISIBILITY.

* - STATION DOES NOT REPORT WEATHER SUCH AS PRECIPITATION OR FOG.

+ - STATION NOT QUALITY CONTROLLED BY THE NATIONAL WEATHER SERVICE.
    USE DATA WITH CAUTION...ESPECIALLY DEWPOINT AND RELATIVE
    HUMIDITY OBSERVATIONS.

INZ001>003-010>013-019-020-270700-
NORTHWEST INDIANA

CITY           SKY/WX    TMP DP  RH WIND       PRES   REMARKS
GARY /AIRPORT/ LGT RAIN  62  60  94 SE6       29.44S
KNOX *+        CLOUDY    59  52  77 CALM      29.46F
LA PORTE +     DRIZZLE   60  59  98 CALM      29.45F
6HR MIN TEMP:  60; 6HR MAX TEMP:  73; 6HR PCP:  0.25;

MONTICELLO +   CLOUDY    60  59  96 CALM      29.47F
6HR MIN TEMP:  60; 6HR MAX TEMP:  69; 6HR PCP:  0.23;

VALPARAISO     LGT RAIN  61  61 100 S3        29.45F
6HR MIN TEMP:  61; 6HR MAX TEMP:  75; 6HR PCP:  0.75;


$$

LMZ046-743>745-270700-
SOUTHERN LAKE MICHIGAN

STATION/POSITION TIME  TEMP    WIND        PRES    WAVE
                       AIR SEA DIR/SP/G            HT
                 (UTC) (F)     (DEG/KT/KT) (MB)    (FT)
BURNS HARBOR     0540   61     170/  5/  9  998.0F
MICHIGAN CITY    0540   60     130/  6/  7   N/A
5NW MICH CITY    0600   55 49                N/A     0

$$

INZ004-005-014>016-021>024-270700-
NORTH CENTRAL INDIANA

CITY           SKY/WX    TMP DP  RH WIND       PRES   REMARKS
GOSHEN         PTCLDY    63  58  83 SW3       29.46F
6HR MIN TEMP:  62; 6HR MAX TEMP:  75; 6HR PCP:  0.03;

LOGANSPORT +   CLOUDY    61  59  94 W3        29.48F
PERU/GRISSOM   MOCLDY    62  62 100 W5        29.47S
6HR MIN TEMP:  61; 6HR MAX TEMP:  70; 6HR PCP:  0.17;

ROCHESTER +    CLOUDY    63  61  94 W5        29.48R
SOUTH BEND     CLOUDY    60  60 100 SW5       29.47F
6HR MIN TEMP:  60; 6HR MAX TEMP:  74; 6HR PCP:  0.21;

WARSAW +       CLOUDY    63  59  88 CALM      29.47F

$$

INZ006>009-017-018-025>027-270700-
NORTHEAST INDIANA

CITY           SKY/WX    TMP DP  RH WIND       PRES   REMARKS
AUBURN +       CLOUDY    63  55  77 CALM      29.50F
FORT WAYNE     CLOUDY    64  54  69 S10       29.49F
6HR MIN TEMP:  61; 6HR MAX TEMP:  77; 6HR PCP:  0.09;

HUNTINGTON +   CLOUDY    64  56  76 S7        29.49S
6HR MIN TEMP:  60; 6HR MAX TEMP:  69; 6HR PCP:  0.57;


$$

INZ028-029-035-036-043>045-051>053-270700-
WEST CENTRAL INDIANA

CITY           SKY/WX    TMP DP  RH WIND       PRES   REMARKS
CRAWFORDSVL +  CLOUDY    58  58 100 S6        29.52R
6HR MIN TEMP:  57; 6HR MAX TEMP:  63; 6HR PCP:  0.02;

LAFAYETTE      CLOUDY    60  60 100 CALM      29.48S
6HR MIN TEMP:  59; 6HR MAX TEMP:  65;

TERRE HAUTE    CLOUDY    60  58  92 SW7       29.52F
6HR MIN TEMP:  60; 6HR MAX TEMP:  65; 6HR PCP:  0.18;


$$

INZ030>032-037>040-046>048-054>057-064-065-270700-
CENTRAL INDIANA

CITY           SKY/WX    TMP DP  RH WIND       PRES   REMARKS
CP ATTERBURY + CLOUDY    72  55  56 S13G21    29.51F
FISHERS *+     CLOUDY    70  59  68 SW13G18   29.50S
FRANKFORT +    CLOUDY    63  61  94 W5        29.51S
6HR MIN TEMP:  63; 6HR MAX TEMP:  68; 6HR PCP:  0.01;

GREENWOOD *+   CLOUDY    72  55  54 SW14G21   29.52R
INDIANAPOLIS   CLOUDY    64  58  80 SW12      29.51R
6HR MIN TEMP:  64; 6HR MAX TEMP:  73;

-EAGLE CREEK   CLOUDY    65  58  78 MISG      29.50R
6HR MIN TEMP:  63; 6HR MAX TEMP:  73;

KOKOMO +       CLOUDY    64  59  83 W10       29.49S
6HR MIN TEMP:  61; 6HR MAX TEMP:  72; 6HR PCP:  0.08;

MARION +       CLOUDY    66  55  68 S16       29.49F
MT COMFORT *+  CLOUDY    70  54  56 S12       29.51F
SHELBYVILLE    CLOUDY    73  54  51 S16       29.50F
6HR MIN TEMP:  70; 6HR MAX TEMP:  81;

ZIONSVILLE +   CLOUDY    62  58  88 SW8       29.51R
6HR MIN TEMP:  58; 6HR MAX TEMP:  66;


$$

INZ033-034-041-042-049-050-058-059-270700-
EAST CENTRAL INDIANA

CITY           SKY/WX    TMP DP  RH WIND       PRES   REMARKS
MUNCIE         CLOUDY    73  53  49 S15G23    29.51S
6HR MIN TEMP:  66; 6HR MAX TEMP:  81;

RICHMOND +     CLOUDY    63  50  63 S9        29.58R

$$

INZ060-061-067>069-081>083-085>088-270700-
SOUTHWEST INDIANA

CITY           SKY/WX    TMP DP  RH WIND       PRES   REMARKS
EVANSVILLE     LGT RAIN  61  58  90 MISG      29.59F
6HR MIN TEMP:  61; 6HR MAX TEMP:  79; 6HR PCP:  0.15;

HUNTINGBURG *+ LGT RAIN  60  58  92 W5        29.59R
6HR MIN TEMP:  60; 6HR MAX TEMP:  77; 6HR PCP:  0.10;

WASHINGTON +   LGT RAIN  60  59  94 S8        29.59R
6HR MIN TEMP:  60; 6HR MAX TEMP:  72; 6HR PCP:  0.03;


$$

INZ062-063-066-070>080-084-089>092-270700-
SOUTH CENTRAL AND SOUTHEAST INDIANA

CITY           SKY/WX    TMP DP  RH WIND       PRES   REMARKS
BEDFORD +      CLOUDY    63  57  82 SW13G18   29.58R
BLOOMINGTON    LGT RAIN  63  57  81 W7        29.53S
6HR MIN TEMP:  63; 6HR MAX TEMP:  77; 6HR PCP: TRACE;

MADISON *+     CLOUDY    70  54  56 S7        29.59S
NORTH VERNON + CLOUDY    68  55  64 S9        29.56S
SEYMOUR +      MOCLDY    73  55  53 S22G29    29.53F

$$




USA.gov is the U.S. government's official web portal to all federal, state and local government web resources and services.